Location: G�kdere
(37.0328°N, 30.9000°E)
Time: 04:32:26
(UTC+00:00)

Cosmos 1703 Rocket - Pass Details

Date: 03 March 2021
Orbit: 604 x 634 km, 82.5° (Epoch: 19 April)

Event Time Altitude Azimuth Distance (km) Brightness Sun altitude
Rises 17:12:59 0° 357° (N) 2,901 7.1 -16.8°
Reaches altitude 10° 17:15:17 10° 2° (N) 1,986 6.2 -17.3°
Maximum altitude 17:19:35 55° 81° (E) 736 3.5 -18.2°
Enters shadow 17:22:10 23° 152° (SSE) 1,322 4.9 -18.7°
